This is the latest recevied weather packets stored in our database for station/object W5ZYX. If no packets are shown the sender has not sent any weather packets the latest 1 day(s).
| Time | Temp. | Humidity | Pressure | Rain* | Wind** | Luminosity | Snow |
|---|---|---|---|---|---|---|---|
| 1778094337 | 21.67° C | 84% | 1010.9 hPa | 0 mm | - | - | - |
| 1778093741 | 21.11° C | 84% | 1011 hPa | 0 mm | - | - | - |
| 1778093156 | 20.56° C | 85% | 1011.2 hPa | 0 mm | - | - | - |
| 1778092539 | 20.56° C | 87% | 1011.3 hPa | 0 mm | - | - | - |
| 1778092261 | 20° C | 87% | 1011.2 hPa | 0 mm | - | - | - |
| 1778091364 | 18.89° C | 88% | 1011.5 hPa | 0 mm | - | - | - |
| 1778090739 | 18.33° C | 88% | 1011.9 hPa | 0 mm | - | - | - |
| 1778090137 | - | - | 1012.1 hPa | 0 mm | - | - | - |
| 1778089839 | - | - | 1012.1 hPa | 0 mm | - | - | - |
| 1778088340 | 17.78° C | 87% | 1013.2 hPa | 0 mm | - | - | - |
| 1778087758 | 18.33° C | 89% | 1013.2 hPa | 0 mm | - | - | - |
| 1778085951 | 21.11° C | 84% | 1013.2 hPa | 0 mm | - | - | - |
| 1778084738 | 26.11° C | 85% | 1012.3 hPa | 0 mm | - | - | - |
| 1778084146 | 26.11° C | 86% | 1012.2 hPa | 0 mm | - | - | - |
| 1778082940 | 26.11° C | 87% | 1011.5 hPa | 0 mm | - | - | - |
| 1778081736 | 25.56° C | 87% | 1011.4 hPa | 0 mm | - | - | - |
| 1778079039 | 25° C | 89% | 1011.4 hPa | 0 mm | - | - | - |
| 1778078756 | 25° C | 89% | 1011.4 hPa | 0 mm | - | - | - |
| 1778077539 | 25° C | 91% | 1011 hPa | 0 mm | - | - | - |
| 1778077239 | 24.44° C | 90% | 1010.9 hPa | 0 mm | - | - | - |
| 1778076948 | 24.44° C | 91% | 1010.9 hPa | 0 mm | - | - | - |
| 1778076047 | 24.44° C | 92% | 1010.6 hPa | 0 mm | - | - | - |
| 1778075437 | 24.44° C | 93% | 1010.7 hPa | 0 mm | - | - | - |
| 1778074262 | 23.89° C | 93% | 1010.6 hPa | 0 mm | - | - | - |
| 1778073940 | 23.89° C | 93% | 1010.6 hPa | 0 mm | - | - | - |
* Rain latest hour (hover to see other rain measurements)
** Current wind speed in m/s (hover to see current wind gust speed)